Regional Weather Roundup
Issued by NWS

Home | Current Version | Previous Version | Graphics & Text | Print | Product List | Glossary On
Versions: 1 2 3 4 5 6 7 8 9 10 11 12 13 14 15 16 17 18 19 20 21 22 23 24 25 26 27 28 29 30 31 32 33 34 35 36 37 38 39 40 41 42 43 44 45 46 47 48 49 50
698
ASUS45 KCYS 290110
RWRWY

WYOMING REGIONAL WEATHER ROUNDUP
NATIONAL WEATHER SERVICE CHEYENNE WY
700 PM MDT THU JUL 28 2016

NOTE:  "FAIR" INDICATES FEW OR NO CLOUDS BELOW 12,000 FEET
WITH NO SIGNIFICANT WEATHER AND/OR OBSTRUCTIONS TO VISIBILITY.

WYZ001-290200-
YELLOWSTONE NATIONAL PARK

CITY           SKY/WX    TMP DP  RH WIND       PRES   REMARKS
LK YELLOWSTONE   N/A     74  30  19 VRB3      30.35S
W YELLOWSTONE  NOT AVBL

$$
WYZ002>013-054>058-071-098>099-290200-
NORTHERN WYOMING

CITY           SKY/WX    TMP DP  RH WIND       PRES   REMARKS
JACKSON        NOT AVBL
CODY           FAIR      75  48  38 N12       30.19S
GREYBULL       FAIR      85  45  24 NW20G28   30.08R
WORLAND        FAIR      84  44  24 NE7       30.10S
SHERIDAN       FAIR      81  48  31 N10       30.14F
BUFFALO        CLOUDY    75  45  34 N14       30.21S
GILLETTE       FAIR      75  54  47 NE10      30.16F
HULETT         FAIR      73  52  46 N8        30.18S
NEWCASTLE      FAIR      73  50  43 NW10G16   30.16S

$$
WYZ014>020-022>026-101>103-290200-
CENTRAL WYOMING

CITY           SKY/WX    TMP DP  RH WIND       PRES   REMARKS
BIG PINEY      FAIR      84  24  11 N16       30.25S
PINEDALE       FAIR      81  21  11 NW15      30.26S
DUBOIS         FAIR      73  41  31 SE18G25   30.26S
LANDER         FAIR      80  47  31 N9        30.16R
RIVERTON       FAIR      79  41  25 N20G26    30.17R
CASPER         FAIR      79  45  29 NE14      30.17S
DOUGLAS          N/A    N/A N/A N/A MISG      30.18S

$$
WYZ021-027>030-104>119-290200-
SOUTHERN WYOMING

CITY           SKY/WX    TMP DP  RH WIND       PRES   REMARKS
EVANSTON       FAIR      84  27  12 NW16G24   30.27F
KEMMERER         N/A     81  19  10 NW21G29   30.28S
FORT BRIDGER   FAIR      86  26  11 NW18      30.28F
ROCK SPRINGS   FAIR      86  17   8 NW20G26   30.19S
DIXON          FAIR      89  26  10 NW10G21   30.18F
RAWLINS        FAIR      79  43  27 NE12G23   30.21S
SARATOGA       FAIR      79  39  24 NE6       30.22F
LARAMIE        FAIR      70  52  52 E15       30.28F
CHEYENNE       FAIR      66  58  75 E3        30.28R
TORRINGTON     FAIR      79  52  38 SE10      30.13S
PINE BLUFFS    FAIR      72  54  53 E6        30.21S

$$




USA.gov is the U.S. government's official web portal to all federal, state and local government web resources and services.